[[{"header":{"parameterUnit":"m.s-1","parameterCategory":1,"la1":30.2991,"la2":30.254,"lo1":-89.0895,"lo2":-89.0444,"dx":0.0017,"dy":0.0017,"nx":28,"ny":28,"refTime":"2022-12-05T15:00:00:Z","depth":0,"parameterNumber":2,"parameterNumberName":"U-component_of_WINDS"},"data":[0,0,0,0,0,0,0,0,0,0,0,0,0,0,0,0,0,0,0,0,0,0,0,0,0,0,0,0,0,0,0,0,0,0,0,0,0,0,0,0,0,0,0,0,0,0,0,0,0,0,0,0,0,0,0,0,0,0,-0.7796,-0.7795,0,-0.7688,-0.7687,-0.7685,-0.7605,-0.7604,-0.7604,-0.7603,-0.7489,-0.7487,-0.7484,0,0,0,0,0,0,0,0,0,0,0,0,0,-0.7929,-0.7927,-0.7796,-0.7795,-0.7793,-0.7688,-0.7687,-0.7685,-0.7605,-0.7604,-0.7603,-0.7603,-0.749,-0.7487,-0.7484,0,0,0,0,0,0,0,0,0,0,0,0,0,-0.7851,-0.7927,-0.7796,-0.7741,-0.7735,-0.7688,-0.7687,-0.7685,-0.7605,-0.7604,-0.7603,-0.7602,-0.7491,-0.7487,-0.7484,-0.7483,0,0,-0.7473,-0.7471,0,0,0,0,0,0,0,0,-0.7856,-0.7847,-0.775,-0.7744,-0.7738,-0.7659,-0.7692,-0.7617,-0.7605,-0.7654,-0.7603,-0.7602,-0.7546,-0.7538,-0.752,-0.7478,-0.7473,-0.7473,-0.747,-0.7469,-0.7468,0,0,0,0,0,0,0,-0.7861,-0.7851,-0.7753,-0.7749,-0.7741,-0.772,-0.7708,-0.7677,-0.7607,-0.765,-0.7644,-0.7632,-0.7542,-0.7524,-0.7517,-0.7471,-0.7473,-0.7469,-0.7467,-0.7466,-0.7421,-0.7422,0,0,0,0,0,0,-0.7876,-0.7856,-0.7756,-0.775,-0.7795,-0.7719,-0.7705,-0.7685,-0.7608,-0.7595,-0.7633,-0.7629,-0.753,-0.7521,-0.7512,-0.7505,-0.7469,-0.7466,-0.7464,-0.742,-0.7421,-0.7422,0,0,0,0,0,0,-0.7879,-0.7868,-0.7761,-0.7801,-0.7786,-0.7717,-0.7696,-0.7684,-0.7665,-0.7595,-0.7582,-0.7627,-0.7529,-0.7517,-0.7491,-0.75,-0.7464,-0.7461,-0.7419,-0.742,-0.7422,-0.7491,0,0,0,0,0,0,-0.7883,-0.787,-0.7869,-0.7802,-0.7784,-0.7742,-0.7697,-0.7682,-0.7659,-0.7652,-0.7586,-0.7573,-0.7527,-0.7496,-0.7487,-0.7494,-0.7458,-0.7418,-0.7419,-0.7421,-0.7488,-0.7495,-0.7501,0,0,0,0,0,-0.7888,-0.7893,-0.787,-0.7858,-0.7783,-0.7743,-0.7733,-0.768,-0.766,-0.7659,-0.7614,-0.7576,-0.7501,-0.7494,-0.7483,-0.749,-0.7417,-0.7419,-0.7421,-0.7485,-0.7493,-0.7501,0,0,0,0,0,0,-0.7962,-0.7883,-0.7857,-0.784,-0.7799,-0.773,-0.7726,-0.7691,-0.7655,-0.765,-0.7585,-0.7571,-0.7551,-0.7517,-0.7512,-0.7484,-0.7454,-0.7454,-0.7506,-0.7514,-0.752,-0.7528,-0.7455,0,0,0,0,0,-0.7977,-0.7953,-0.7884,-0.7876,-0.7857,-0.7795,-0.7776,-0.7739,-0.7694,-0.7676,-0.7629,-0.7586,-0.7552,-0.7531,-0.7497,-0.7483,-0.7466,-0.7482,-0.7488,-0.7494,-0.7494,-0.7483,-0.7488,-0.7429,-0.7429,-0.7429,0,0,-0.8006,-0.796,-0.7948,-0.7889,-0.7853,-0.7828,-0.7781,-0.7757,-0.7737,-0.7672,-0.7644,-0.7608,-0.7555,-0.7535,-0.7523,-0.7506,-0.7507,-0.7497,-0.7502,-0.7499,-0.7486,-0.7491,-0.7496,-0.743,-0.743,-0.743,0,0,-0.8047,-0.801,-0.7998,-0.7963,-0.791,-0.7869,-0.7866,-0.7802,-0.7776,-0.7747,-0.7698,-0.7673,-0.7617,-0.7581,-0.7555,-0.7582,-0.7544,-0.7572,-0.7606,-0.7595,-0.76,-0.7604,-0.7612,-0.7615,-0.7573,-0.7573,-0.7573,0,-0.809,-0.8051,-0.7996,-0.7975,-0.7949,-0.7891,-0.7877,-0.7846,-0.7783,-0.7767,-0.7749,-0.7677,-0.7637,-0.7607,-0.7614,-0.7595,-0.7589,-0.7579,-0.7604,-0.7607,-0.761,-0.7617,-0.762,-0.7577,-0.7576,-0.7576,-0.7576,0,-0.8105,-0.8079,-0.8076,-0.8018,-0.7992,-0.7975,-0.7917,-0.7898,-0.7863,-0.7824,-0.7794,-0.7745,-0.7699,-0.7689,-0.7655,-0.7653,-0.7644,-0.7617,-0.7585,-0.762,-0.7625,-0.7627,-0.7582,-0.7581,-0.758,-0.7579,0,0,-0.8188,-0.8101,-0.81,-0.8073,-0.8009,-0.7987,-0.7967,-0.7922,-0.7906,-0.7865,-0.7845,-0.78,-0.7773,-0.7744,-0.7706,-0.7697,-0.7719,-0.7669,-0.7667,-0.7679,-0.7712,-0.7732,-0.7736,-0.7695,-0.7695,-0.7695,-0.7716,0,-0.8218,-0.8178,-0.8129,-0.8106,-0.808,-0.8024,-0.8005,-0.7964,-0.7927,-0.7898,-0.7857,-0.7825,-0.7793,-0.7775,-0.7764,-0.7719,-0.7725,-0.7717,-0.7674,-0.7673,-0.7687,-0.7739,-0.776,-0.7782,-0.7718,-0.7718,-0.7718,0,-0.8246,-0.8209,-0.8184,-0.8121,-0.8109,-0.8093,-0.8048,-0.8022,-0.7974,-0.7947,-0.7915,-0.7873,-0.7847,-0.7821,-0.7783,-0.7779,-0.7758,-0.7734,-0.7733,-0.7726,-0.7697,-0.7731,-0.7788,-0.7791,-0.7721,-0.7721,-0.7721,0,-0.8307,-0.8251,-0.8228,-0.8206,-0.8134,-0.8124,-0.8093,-0.8043,-0.802,-0.798,-0.7963,-0.7921,-0.7898,-0.7865,-0.7813,-0.7799,-0.778,-0.775,-0.7756,-0.7757,-0.7753,-0.7754,-0.7806,-0.7743,-0.7743,-0.7743,-0.7743,0,-0.8344,-0.8331,-0.8254,-0.824,-0.8223,-0.8165,-0.8149,-0.8113,-0.8069,-0.8046,-0.7995,-0.7974,-0.7907,-0.7878,-0.7837,-0.7811,-0.7801,-0.7778,-0.7767,-0.7781,-0.7784,-0.7766,-0.7762,-0.7744,-0.7744,-0.7744,-0.7744,0,-0.8409,-0.8358,-0.8329,-0.8262,-0.8245,-0.8235,-0.8178,-0.8161,-0.8121,-0.8092,-0.8082,-0.8019,-0.7982,-0.7927,-0.7874,-0.7846,-0.7826,-0.7809,-0.7842,-0.7835,-0.7844,-0.7844,-0.7885,-0.7887,-0.7825,-0.7826,-0.7827,0,-0.8435,-0.8423,-0.8356,-0.8337,-0.8308,-0.8279,-0.8254,-0.8197,-0.8173,-0.8117,-0.8107,-0.8066,-0.803,-0.7973,-0.7922,-0.788,-0.786,-0.7878,-0.7854,-0.7868,-0.7858,-0.7859,-0.7857,-0.7883,-0.7884,-0.7885,-0.7885,0,-0.8486,-0.8461,-0.8429,-0.8387,-0.8359,-0.8323,-0.8285,-0.8272,-0.8206,-0.8182,-0.8144,-0.8116,-0.8062,-0.8021,-0.7972,-0.7939,-0.7901,-0.7894,-0.7893,-0.7907,-0.7926,-0.7914,-0.7856,-0.7893,-0.7892,-0.7891,-0.7891,-0.7891,-0.8531,-0.8517,-0.8468,-0.8432,-0.8398,-0.8363,-0.8344,-0.8301,-0.8269,-0.822,-0.8189,-0.8152,-0.8102,-0.8033,-0.8001,-0.7971,-0.7955,-0.7954,-0.7953,-0.7953,-0.7958,-0.7933,-0.7962,-0.7962,-0.7961,-0.7961,-0.7961,0,-0.8578,-0.8543,-0.8512,-0.8459,-0.8431,-0.84,-0.8355,-0.8333,-0.8302,-0.8259,-0.8225,-0.8181,-0.8141,-0.8087,-0.8043,-0.8029,-0.801,-0.8019,-0.8018,-0.8011,-0.7975,-0.798,-0.8035,-0.8035,-0.8035,-0.8035,-0.8035,-0.8035,-0.8599,-0.8574,-0.8543,-0.8499,-0.8464,-0.8428,-0.8406,-0.8373,-0.8338,-0.8291,-0.8258,-0.8223,-0.8175,-0.8127,-0.8089,-0.8074,-0.8059,-0.8073,-0.8053,-0.802,-0.8014,-0.8007,-0.8011,-0.8071,-0.8071,-0.809,-0.8091,-0.8091]},{"header":{"parameterUnit":"m.s-1","parameterCategory":1,"la1":30.2991,"la2":30.254,"lo1":-89.0895,"lo2":-89.0444,"dx":0.0017,"dy":0.0017,"nx":28,"ny":28,"refTime":"2022-12-05T15:00:00:Z","depth":0,"parameterNumber":3,"parameterNumberName":"V-component_of_WINDS"},"data":[0,0,0,0,0,0,0,0,0,0,0,0,0,0,0,0,0,0,0,0,0,0,0,0,0,0,0,0,0,0,0,0,0,0,0,0,0,0,0,0,0,0,0,0,0,0,0,0,0,0,0,0,0,0,0,0,0,0,2.14,2.14,0,2.1458,2.1459,2.1459,2.1521,2.1522,2.1523,2.1523,2.158,2.1581,2.1582,0,0,0,0,0,0,0,0,0,0,0,0,0,2.1339,2.134,2.1399,2.14,2.1401,2.1458,2.1459,2.146,2.1521,2.1522,2.1523,2.1524,2.158,2.1581,2.1582,0,0,0,0,0,0,0,0,0,0,0,0,0,2.1378,2.134,2.1399,2.1438,2.1443,2.1458,2.1459,2.146,2.1521,2.1522,2.1523,2.1524,2.158,2.1581,2.1582,2.1562,0,0,2.1585,2.1586,0,0,0,0,0,0,0,0,2.1376,2.138,2.1432,2.1436,2.144,2.1484,2.1459,2.1494,2.152,2.1491,2.1523,2.1525,2.1547,2.1551,2.1559,2.1565,2.1567,2.1585,2.1586,2.1586,2.1587,0,0,0,0,0,0,0,2.1373,2.1378,2.1423,2.1433,2.1438,2.1453,2.146,2.1466,2.1511,2.1493,2.1498,2.1504,2.1549,2.1558,2.1561,2.1568,2.1585,2.1586,2.1587,2.1587,2.1564,2.1563,0,0,0,0,0,0,2.1365,2.1376,2.1421,2.1424,2.1411,2.1453,2.146,2.1468,2.1511,2.1519,2.1503,2.1507,2.1555,2.1559,2.1563,2.1545,2.1586,2.1587,2.1588,2.1566,2.1564,2.1563,0,0,0,0,0,0,2.1363,2.1368,2.1418,2.1401,2.1409,2.1452,2.1461,2.1469,2.1477,2.1518,2.1526,2.1503,2.1556,2.1561,2.1563,2.1548,2.1588,2.1589,2.1567,2.1565,2.1563,2.1507,0,0,0,0,0,0,2.1361,2.1367,2.1361,2.1401,2.141,2.1418,2.146,2.1469,2.1479,2.1485,2.1521,2.1528,2.1558,2.1561,2.1564,2.155,2.159,2.1569,2.1566,2.1564,2.1511,2.1504,2.1498,0,0,0,0,0,2.1359,2.1341,2.136,2.1365,2.1402,2.1417,2.1422,2.1457,2.1478,2.1471,2.1498,2.1527,2.1549,2.1561,2.1564,2.155,2.157,2.1567,2.1564,2.1514,2.1505,2.1498,0,0,0,0,0,0,2.1296,2.1347,2.1368,2.1363,2.1385,2.1427,2.142,2.1447,2.1463,2.1467,2.151,2.1518,2.1515,2.1532,2.1545,2.1535,2.1563,2.1561,2.1524,2.1516,2.151,2.1506,2.159,0,0,0,0,0,2.1282,2.1291,2.1334,2.1325,2.1336,2.1376,2.1383,2.1409,2.1434,2.1443,2.147,2.1491,2.1504,2.1511,2.1524,2.1513,2.1523,2.1506,2.1499,2.1494,2.1492,2.149,2.1483,2.1554,2.1554,2.1554,0,0,2.1253,2.1281,2.1284,2.1314,2.1334,2.1342,2.1383,2.1389,2.1395,2.1443,2.1448,2.1468,2.1495,2.1491,2.1491,2.1506,2.1474,2.149,2.1486,2.1487,2.1486,2.148,2.1474,2.1552,2.1552,2.1552,0,0,2.1203,2.1225,2.1222,2.1242,2.1272,2.13,2.1299,2.1337,2.1353,2.1358,2.1395,2.1403,2.1422,2.1441,2.1453,2.1412,2.144,2.1415,2.1382,2.1379,2.1374,2.1369,2.1357,2.1351,2.1413,2.1413,2.1413,0,2.1162,2.1176,2.1216,2.122,2.1233,2.1279,2.1276,2.1293,2.1326,2.1333,2.135,2.1377,2.1398,2.1401,2.1391,2.1399,2.14,2.1412,2.1372,2.1367,2.1364,2.1352,2.1347,2.141,2.141,2.141,2.1411,0,2.1125,2.1134,2.1127,2.1161,2.1172,2.1172,2.1212,2.1219,2.1245,2.127,2.1275,2.1303,2.1324,2.1326,2.1349,2.1332,2.1341,2.1364,2.1393,2.1353,2.1343,2.1339,2.1405,2.1406,2.1407,2.1408,0,0,2.1037,2.1094,2.1091,2.1107,2.1146,2.1153,2.1156,2.1178,2.1184,2.1205,2.1209,2.1226,2.1249,2.1262,2.1288,2.1286,2.1255,2.131,2.1311,2.13,2.124,2.1223,2.1217,2.1273,2.1272,2.1272,2.1238,0,2.0996,2.1005,2.1042,2.104,2.105,2.1095,2.1097,2.1121,2.1145,2.1157,2.1183,2.1195,2.1223,2.1232,2.1231,2.1259,2.1244,2.1261,2.1278,2.1278,2.1271,2.1212,2.1194,2.1161,2.1234,2.1233,2.1233,0,2.0948,2.0969,2.0969,2.1009,2.1015,2.1016,2.1041,2.1051,2.1079,2.1097,2.1113,2.1143,2.1149,2.1176,2.1186,2.1197,2.1206,2.1221,2.1221,2.1224,2.1254,2.1215,2.115,2.1146,2.1227,2.1227,2.1228,0,2.0886,2.0914,2.0918,2.0931,2.0977,2.0978,2.0997,2.1027,2.1038,2.1059,2.1067,2.1087,2.1099,2.1114,2.1149,2.1165,2.1155,2.1184,2.1171,2.117,2.1167,2.1167,2.1104,2.117,2.117,2.1171,2.1171,0,2.0837,2.0835,2.0892,2.0894,2.0894,2.0937,2.0935,2.0959,2.0985,2.0993,2.1032,2.1038,2.1084,2.1096,2.1123,2.1128,2.1132,2.1147,2.1155,2.1145,2.1143,2.1152,2.1156,2.1169,2.117,2.117,2.117,0,2.0768,2.0805,2.0814,2.0858,2.0869,2.0867,2.0905,2.0909,2.0936,2.0946,2.0951,2.0993,2.1009,2.1046,2.1071,2.109,2.1088,2.1101,2.1079,2.1084,2.1069,2.1071,2.1011,2.1006,2.1073,2.1072,2.1072,0,2.0735,2.0735,2.078,2.0789,2.0808,2.0821,2.0834,2.0875,2.0887,2.092,2.0921,2.094,2.0959,2.0982,2.1015,2.1035,2.105,2.1027,2.1053,2.1043,2.1051,2.1052,2.1053,2.1022,2.1021,2.102,2.1019,0,2.0672,2.0691,2.0709,2.0733,2.0747,2.0768,2.0791,2.0796,2.0843,2.0854,2.0872,2.0886,2.0913,2.0933,2.0958,2.0978,2.1007,2.1011,2.101,2.1,2.0988,2.0996,2.1065,2.1012,2.1013,2.1014,2.1014,2.1014,2.0621,2.0625,2.0658,2.0676,2.0698,2.0719,2.0727,2.0755,2.0771,2.0798,2.0821,2.0838,2.0867,2.0905,2.0923,2.0936,2.095,2.0947,2.0947,2.0946,2.0942,2.0985,2.0941,2.0941,2.0941,2.0941,2.0941,0,2.0563,2.0587,2.0603,2.0635,2.065,2.0677,2.0704,2.0715,2.0729,2.0755,2.0773,2.0794,2.0814,2.0848,2.0871,2.0875,2.0889,2.088,2.0881,2.0885,2.0927,2.0927,2.0868,2.0868,2.0868,2.0868,2.0868,2.0868,2.0534,2.0542,2.0565,2.0585,2.0608,2.0626,2.0639,2.0659,2.068,2.0703,2.072,2.0743,2.0773,2.0799,2.0818,2.0828,2.0835,2.0822,2.0836,2.0875,2.0882,2.0888,2.0889,2.0823,2.0823,2.0793,2.0793,2.0792]}]]